Location: Exeidioux
(45.6312°N, 1.6819°E)
Time: 20:26:27
(UTC+00:00)

Daily predictions for brighter satellites

Satellite Brightness Start Highest point End
(mag) Time Altitude Azimuth Time Altitude Azimuth Time Altitude Azimuth
H-2A R/B 2.3 18:02:59 10° SSE 18:08:16 54° ENE 18:13:34 10° N
CZ-2C R/B 3.6 18:04:04 10° NE 18:08:33 25° E 18:12:55 10° SSE
USA 305 4.3 18:05:46 10° W 18:09:37 32° NNW 18:13:29 10° NE
IRS-1C Rocket 4.1 18:06:50 10° SSE 18:12:03 70° ENE 18:17:19 10° N
Gbstr 26 Del rocket 3.8 18:08:12 10° W 18:12:21 50° NNW 18:17:24 10° ENE
Meteor 1-20 Rocket 4.1 18:08:58 10° S 18:14:21 67° E 18:19:49 10° NNE
Cosmos 1302 Rocket 4.1 18:09:26 10° SSW 18:14:38 87° WNW 18:19:53 10° NNE
SL-4 R/B 2.9 18:11:55 10° WNW 18:15:09 30° N 18:18:15 10° ENE
CSL-04 DEB 4.4 18:15:21 10° NNE 18:19:19 86° WNW 18:23:20 10° SSW
USA 307 4.3 18:17:08 10° WNW 18:20:58 30° NNW 18:24:47 10° NE
ATLAS CENTAUR R/B 2.1 18:20:12 10° S 18:23:14 25° ESE 18:26:17 10° ENE
FALCON 9 DEB 3.9 18:20:02 10° NW 18:23:15 37° NNE 18:26:13 11° E
USA 306 4.4 18:20:38 10° WNW 18:24:25 30° NNW 18:28:11 10° NE
Cosmos 44 Rocket 3.4 18:22:10 10° NNW 18:27:26 76° NE 18:32:37 10° SE
Okean-O 2.6 18:23:38 10° SSE 18:28:01 68° ENE 18:32:26 10° N
ERS-2 2.5 18:25:04 10° NNE 18:28:34 42° E 18:32:03 10° S
CSL-04 Rocket 4.0 18:24:11 10° SE 18:29:27 47° ENE 18:34:43 10° N
Cosmos 1844 Rocket 3.1 18:24:31 10° NNW 18:29:47 40° NE 18:35:00 10° SE
Cosmos 2084 Rocket 3.6 18:25:30 10° NNW 18:29:48 59° NE 18:34:13 10° SE
SAR-Lupe-1 4.4 18:27:15 10° NNE 18:30:42 42° E 18:34:07 10° S
CSL-04 Debris 4.4 18:25:33 10° SE 18:30:48 51° ENE 18:36:05 10° N
USA 308 4.4 18:27:52 10° WNW 18:31:38 29° N 18:35:24 10° NE
Cosmos 1666 4.1 18:30:58 10° SE 18:33:28 17° E 18:35:59 10° NE
Cosmos 1271 Rocket 3.7 18:30:42 10° NNW 18:34:20 50° W 18:37:58 10° S
HJ-1C 3.5 18:32:43 10° SSE 18:35:57 52° ENE 18:39:11 10° N
Cosmos 1503 Rocket 4.1 18:31:23 10° NNW 18:36:29 53° ENE 18:41:31 10° SE
H-2A R/B 4.4 18:33:54 10° N 18:37:18 26° WNW 18:40:43 10° WSW
Cosmos 2341 Rocket 4.5 18:31:40 10° SSE 18:37:21 37° E 18:43:02 10° NNE
PSLV R/B 3.8 18:35:37 10° NNE 18:39:43 76° ESE 18:43:46 10° S
Cosmos 1470 Rocket 3.6 18:36:53 10° S 18:41:17 63° E 18:45:42 10° NNE
Cosmos 1844 4.2 18:36:06 10° NNW 18:41:36 42° NE 18:46:58 10° SE
CZ-4B R/B 3.1 18:40:51 10° N 18:43:38 32° WNW 18:46:25 10° SW
Cosmos 2360 Rocket 2.4 18:38:16 10° S 18:43:39 49° ESE 18:49:07 10° NE
Cosmos 1602 4.0 18:41:04 10° SSW 18:44:57 74° W 18:48:53 10° N
Ariane Rocket 4.2 18:42:04 14° ESE 18:45:04 23° ENE 18:49:01 10° N
Cosmos 2278 Rocket 4.0 18:43:21 10° N 18:46:27 15° NE 18:48:36 12° ENE
Meteor 1-19 Rocket 4.3 18:43:31 10° NNW 18:49:30 89° W 18:55:16 10° S
Cosmos 1500 3.1 18:48:20 10° S 18:52:00 60° E 18:55:42 10° NNE
Cosmos 2333 Rocket 3.1 18:49:20 10° SSE 18:53:58 27° ESE 18:58:38 10° NE
Meteor 2-4 Rocket 3.8 18:48:16 10° N 18:54:03 62° ENE 18:59:55 10° SSE
Cosmos 1703 Rocket 3.9 18:50:04 10° N 18:54:17 43° ENE 18:58:26 10° SSE
DMSP B5D1-3 4.5 18:49:39 10° NNE 18:54:51 84° ESE 19:00:01 10° SSW
SL-08 RB Rocket 3.6 18:52:07 10° SSE 18:56:36 70° ENE 19:01:09 10° N
Cosmos 1689 Rocket 2.2 18:54:13 10° N 18:57:05 69° WNW 18:59:56 10° SSW
Meteor 2-12 Rocket 4.4 18:51:22 10° S 18:57:26 80° E 19:03:33 10° N
ERBS 4.3 18:56:43 10° W 18:59:28 23° NNW 19:02:13 10° NNE
Cosmos 1933 Rocket 3.4 18:57:53 10° S 19:02:12 70° E 19:06:34 10° NNE
BREEZE-M DEB (TANK) 4.3 19:02:15 10° SSW 19:03:36 19° SSE 19:03:36 19° SSE
Aureole 2 Rocket 2.2 19:02:29 10° NNW 19:04:58 55° WSW 19:06:51 15° S
Resurs 01 Rocket 3.4 19:12:40 16° NE 19:12:40 16° NE 19:14:30 10° NNE
Cosmos 2242 Rocket 3.5 19:07:52 10° N 19:12:23 76° E 19:16:51 10° SSE
Cosmos 2322 Rocket 2.8 19:08:07 10° SW 19:13:39 59° WNW 19:19:13 10° NNE
Lacrosse 4 Rocket 2.7 19:12:00 10° SSE 19:14:29 24° SE 19:14:29 24° SE
Abrixas rocket 2.4 19:13:44 10° WNW 19:16:08 39° N 19:16:08 39° N
SME Rocket 4.3 19:11:08 10° NNE 19:18:51 48° E 19:23:57 10° S
Helios 1A Rocket 3.7 19:15:04 10° S 19:19:02 53° W 19:23:00 10° NNW
YAOGAN 1 4.4 19:15:59 10° SSW 19:19:53 33° W 19:23:50 10° NNW
SJ-6B 2.9 19:22:30 36° SE 19:23:52 55° ENE 19:27:50 10° N
COSMOS 2428 3.2 19:18:55 10° SSE 19:23:56 34° ESE 19:24:51 32° E
GP-B 3.3 19:23:29 10° S 19:27:54 71° W 19:32:22 10° N
ASTEX 1 3.6 19:23:12 10° NNE 19:27:55 46° E 19:30:11 27° SSE
MOS 1 4.4 19:25:33 25° SE 19:28:45 54° ENE 19:34:17 10° N
Cosmos 2219 Rocket 2.4 19:25:33 10° S 19:30:49 45° ESE 19:36:09 10° NE
Meteor 1-11 Rocket 3.8 19:25:42 10° S 19:31:14 53° E 19:36:42 10° NNE
MetOp-A 4.0 19:27:29 10° SSE 19:32:50 85° ENE 19:38:14 10° NNW
OBJECT-B 2.0 19:36:26 32° N 19:36:26 32° N 19:38:21 10° N
Resurs 1-3 4.0 19:38:47 43° NE 19:38:47 43° NE 19:42:34 10° N
SL-16 R/B 3.9 19:33:29 10° WSW 19:38:34 33° NW 19:43:40 10° N
SJ 16-02 2.7 19:36:56 10° N 19:39:34 25° NNE 19:39:34 25° NNE
SeaSat 1 3.1 19:36:30 10° NNE 19:41:20 56° WNW 19:46:09 10° SW
Okean 1-7 3.4 19:37:12 10° NNW 19:41:32 64° W 19:45:45 10° S
CZ-4 R/B 4.5 19:41:25 10° WSW 19:43:31 14° W 19:45:39 10° WNW
Cosmos 1066 Rocket 4.2 19:38:07 10° N 19:43:47 61° ENE 19:45:41 41° SE
Meteor 1-13 Rocket 4.2 19:38:14 10° N 19:44:13 83° E 19:48:31 19° SSE
USA 234 3.1 19:39:53 22° NE 19:44:26 78° SE 19:50:58 10° SW
CZ-2C R/B 3.6 19:43:49 10° N 19:49:05 48° WNW 19:54:12 10° SW
IRS-1A Rocket 4.1 19:46:43 29° SSE 19:49:42 82° ENE 19:55:17 10° NNW
USA 305 4.3 19:46:49 10° NW 19:50:30 27° N 19:50:56 27° NNE
Cosmos 2322 3.6 19:45:03 10° SSW 19:50:46 82° ESE 19:56:31 10° NNE
BREEZE-M DEB (TANK) 2.9 19:48:07 10° WNW 19:50:49 53° NNE 19:51:09 51° NE
USA 186 4.4 19:56:43 12° NW 19:56:43 12° NW 19:57:00 10° NW
DMSP B5D2-2 4.5 19:49:47 10° N 19:54:57 63° WNW 20:00:05 10° SSW
SL-4 R/B 2.7 19:51:42 10° WNW 19:54:12 41° NW 19:54:12 41° NW
Cosmos 1869 Rocket 3.6 19:52:09 10° SSW 19:56:29 75° W 20:00:55 10° N
SL-8 Rocket 4.2 19:52:42 10° SSW 19:58:56 72° W 20:05:09 10° N
Gbstr 26 Del rocket 4.2 19:55:27 10° WNW 20:00:02 44° N 20:00:59 40° NE
USA 307 4.4 19:58:10 10° NW 20:01:49 28° N 20:01:49 28° N
ATLAS CENTAUR R/B 2.9 19:58:46 10° WSW 20:02:00 30° NW 20:03:10 24° N
USA 306 4.4 20:01:33 10° NW 20:05:03 28° N 20:05:03 28° N
Cosmos 1666 4.4 20:05:24 10° SW 20:08:46 32° WNW 20:12:11 10° N
USA 308 4.4 20:08:47 10° NW 20:12:00 28° N 20:12:00 28° N
Cosmos 1844 Rocket 4.1 20:08:37 10° NW 20:13:34 34° WSW 20:17:54 13° SSW
Cosmos 2366 rocket 4.3 20:07:42 10° SSW 20:13:59 69° W 20:20:21 10° N
SL-08 R/B 4.4 20:11:58 34° S 20:14:59 78° E 20:21:28 10° N
SPOT 3 Rocket 3.8 20:18:37 57° NNE 20:18:37 57° NNE 20:22:53 10° N
Okean 3 4.3 20:15:35 10° NNW 20:19:31 49° W 20:19:31 49° W
Ariane Rocket 3.7 20:22:15 40° SSW 20:23:41 52° W 20:28:41 10° NNW
Cosmos 2360 Rocket 4.0 20:22:58 10° WSW 20:27:54 30° NW 20:32:52 10° N
Cosmos 2278 Rocket 2.7 20:26:01 10° NNW 20:30:28 52° N 20:30:28 52° N
Cosmos 1727 Rocket 4.3 20:30:09 10° NNW 20:36:15 64° W 20:37:45 49° SSW
Cosmos 2333 Rocket 2.9 20:32:23 10° SW 20:37:54 52° WNW 20:43:30 10° NNE
Resurs 01 Rocket 3.6 20:50:14 25° NNW 20:50:14 25° NNW 20:52:09 10° NNW
Cosmos 1943 Rocket 4.2 20:46:24 10° N 20:48:24 17° NNE 20:48:24 17° NNE
Lacrosse 4 Rocket 4.1 20:50:10 10° WSW 20:50:57 14° WSW 20:50:57 14° WSW
COSMOS 2428 3.9 21:02:44 10° SW 21:14:01 - NNE 21:07:14 39° WNW
Cosmos 2219 Rocket 3.7 21:09:57 10° WSW 21:14:55 32° NW 21:19:57 10° N
SJ 16-02 4.1 21:15:28 10° NW 21:16:35 16° NW 21:16:35 16° NW
USA 234 4.0 21:27:15 46° NNW 21:27:15 46° NNW 21:33:21 10° W
